CZ-6A DEB, 54531

Orbit data source: Space-Track

CZ-6A DEB, 54531 is space debris in SSO originally from a launch on Fri, 11 Nov 2022 UTC launched from the Taiyaun Space Center, China (TSC). Debris objects in space refer to the collection of defunct objects orbiting the Earth. Examples of debris include non-operational satellites, rocket bodies, and fragments generated from explosions, collisions, or faulty payload assembly.

Loading next visibility...
Identifier
54531, 2022-151KK
Orbit
SSO
Country
Flag of CNCN / PRC
Related business
Manufacturer
SAST
Mission
Spacecraft
Bus & Motor
Unknown
Mass
Unknown
Launch date (UTC)
2022-11-11 (3 years ago)
Launch vehicle
Unknown
Launch site
Taiyaun Space Center, China (TSC)
Object type
Payload
Rocket body
Debris
Shape & HBR
Unknown shape, 0.1 m
Radar Cross Section
Small (<0.1 m²)

Expand to show TLE details & history
Last TLE update: 13 hours ago

TLE from 13 hours ago
0 CZ-6A DEB
1 54531U 22151KK  26130.18315868  .00165185  00000-0  46211-2 0  9993
2 54531  98.5420 210.9083 0018979 260.6254  99.2840 15.35816112 93300
Epoch: 2026-05-10T04:23Z
TLE epoch observation values (Epoch: 2026-05-10T04:23:44.909Z)
Latitude
-0.0001°
Longitude
-83.01871°
Altitude
463.692 km
Speed
7.633 km/s
True Right ascension
14h 03m 37s
True Declination
0° 00' 00"
Sunlit
Object was in full shadow at epoch
Visualization orbit readout
Latitude
Unknown
Longitude
Unknown
Altitude
Unknown
Speed
Unknown
Apparent Right ascension
Unknown
Apparent Declination
Unknown
Sunlit
N/A
Visualization observer readout
Local Sidereal Time
01:08:38
Azimuth
Unknown
Elevation
Unknown
Doppler factor
Unknown
Orbital elements
Apogee altitude
468.464 km
Perigee altitude
442.525 km
Semi-major axis
6,833.632 km
Eccentricity
0.0019
Inclination
98.542°
RAAN
210.9083°
Arg. of periapsis
260.6254°
True anomaly
99.49855°
Mean anomaly
99.284°
Eccentric anomaly
99.39128°
Mean motion
3.84207 °/min
Orbital period
93.7 mins
BSTAR
0.0046211
Loading maneuver chart data...
Computing Atmospheric mass density...
Loading historical data...
Loading historical data...
Loading historical data...
Loading historical data...
Loading historical data...
Loading historical data...
Loading historical data...

Documentation

Showing up to 5 results
|